Weather in Uvelye

Russia / Bryansk Oblast     52°46′59″N   31°39′28″E
temp.,
°C
wind,
m/s
gust,
m/s
humid.,
%
clouds,
%
prec.,
mm/h
press.,
hPa
HPBL,
m
20 april, tue
tue2000:00+6ne488655 0.0 1017438
03:00+6ne5987100 0.0 1016463
06:00+5ne4890100 0.1 1015389
09:00+6ne5790100 0.1 1014562
12:00+7ne458598 0.1 1013565
15:00+9ne5673100 0.1 10111083
18:00+7nne469199 0.1 1010406
21:00+7nne4793100 0.3 1010429
21 april, wed
wed2100:00+5nne4794100 0.1 1009391
03:00+5nnw3593100 0.2 1008435
06:00+5nw3594100 0.4 1008846
09:00+5wnw3690100 0.9 1009775
12:00+7wnw3575100 0.2 1009919
15:00+9w466489 0.7 10101108
18:00+10wsw355971 0.1 10101215
21:00+6ssw3572100 0.1 101275
22 april, thu
thu2200:00+4ssw379393 0.0 1012126
03:00+5s4894100 0.0 1012171
06:00+5s48945 0.0 1012156
09:00+10ssw57765 0.0 1013415
12:00+14sw686011 0.6 10131362
15:00+16sw694946 1.4 10132087
18:00+15ssw57617 0.0 1014985
21:00+11s497848 0.1 1015208
23 april, fri
fri2300:00+10s5118045 0.1 1014307
03:00+8s512905 0.1 1014231
06:00+7s4109365 0.0 1014214
09:00+11s587654 0.0 1014497
12:00+16s8136055 0.1 10121629
15:00+8wnw7991100 2.3 1013382
18:00+5wnw5991100 2.6 1015651
21:00+5wsw3688100 2.7 1016495
24 april, sat
sat2400:00+4ssw4892100 0.0 1016307
03:00+4sw5992100 0.0 1015309
06:00+1wsw4109448 0.0 1015409
09:00+3w697740 0.2 10161176
12:00+4w796896 0.1 10171204
15:00+7w7948100 0.8 10172176
18:00+7wnw47445 0.0 10162238
21:00+3ssw225322 0.0 101718